OBJECT D, 63294

Orbit data source: Space-Track

You're viewing an Uncataloged Satellite

Recently launched and/or uncataloged satellites may have evolving metadata. Metadata may include but not limited to: Owner, Maufacturer, Bus, Motor, and Mission.

OBJECT D, 63294 is a satellite owned by Yunyao yuhang (CN) in SSO that was launched on Mon, 17 Mar 2025 UTC via a GUSHENXING 1 launch vehicle from the Jiuquan Satellite Launch Center, China (JSC). Unknown objects in Earth's orbit typically refer to objects detected orbiting the Earth but have not yet been identified or cataloged. These objects could be anything from previously untracked satellites, spent rocket stages, debris from satellite collisions, or even natural meteoroids temporarily captured by Earth's gravity.

Loading next visibility...
Identifier
63294, 2025-055D
Orbit
SSO
Last TLE update
9 hours ago
Origin
Flag of CNYYAO (CN / PRC)
Manufacturer
Changguang WJ
Mission
Operational Commercial Meteo Radio Occ.
Bus & Motor
YY-1, Unknown motor
Mass
~50 kg wet, ~50 kg dry
Launch date (UTC)
2025-03-17 (4 months ago)
Launch vehicle
GUSHENXING 1
Launch site
Jiuquan Satellite Launch Center, China (JSC)
Object type
Unknown
Shape & HBR
Box + 1 Pan, 5 m
Radar Cross Section
5.339 m², Medium (>0.1 m² and < 1m²)

Expand to show TLE details & history

TLE from 9 hours ago
0 OBJECT D
1 63294U 25055D   25184.18186488  .00005845  00000-0  37263-3 0  9991
2 63294  97.6136 318.8534 0016846 256.3512 103.5841 15.08996269 16249
Epoch: 2025-07-03T04:21Z
TLE epoch observation values (Epoch: 2025-07-03T04:21:53.125Z)
Latitude
-0.00001°
Longitude
-28.07024°
Altitude
545.091 km
Speed
7.588 km/s
True Right ascension
21h 15m 24s
True Declination
0° 00' 00"
Sunlit
Object was in full shadow at epoch
Visualization orbit readout
Latitude
-77.84412°
Longitude
114.19681°
Altitude
555.425 km
Speed
7.589 km/s
Apparent Right ascension
12h 06m 38s
Apparent Declination
-65° 33' 19"
Sunlit
Object is in daylight
Visualization observer readout
Local Sidereal Time
01:15:14
Azimuth
164.65° S
Elevation
-62.552°
Doppler factor
1
Orbital elements
Apogee altitude
547.903 km
Perigee altitude
524.607 km
Semi-major axis
6,914.392 km
Eccentricity
0.00168
Inclination
97.6136°
RAAN
318.8534°
Arg. of periapsis
256.3512°
True anomaly
Unknown
Mean anomaly
103.5841°
Eccentric anomaly
Unknown
Mean motion
3.77496 °/min
Orbital period
95.37 mins
BSTAR
0.00037263
Loading maneuver chart data...
Loading SW <> Apogee altitude chart data...
Loading historical data...
Loading historical data...
Loading historical data...
Loading historical data...
Loading historical data...
Loading historical data...
Loading historical data...

OBJECT D Visibility forecast

Observer location: undefined°, undefined°

Span
Click to sort rows by Start time (UTC) header in descending order
Start Az.
Max El. time (UTC)
Max El. Az.
Max El.
End time (UTC)
End Az.
4 mins2025-07-03 20:52:24.061Z61.067° ENE2025-07-03 20:54:24.061Z94.95° ESE15.278°2025-07-03 20:56:24.061Z127.818° SE
6 mins2025-07-03 22:26:24.061Z344.975° N2025-07-03 22:28:24.061Z305.29° NW28.3°2025-07-03 22:32:24.061Z223.167° SW
6 mins2025-07-04 09:08:24.061Z174.501° S2025-07-04 09:11:24.061Z278.759° WNW43.745°2025-07-04 09:14:24.061Z342.719° N
|